Time,TemperatureF,DewpointF,PressureIn,WindDirection,WindDirectionDegrees,WindSpeedMPH,WindSpeedGustMPH,Humidity,HourlyPrecipIn,Conditions,Clouds,dailyrainin,SoftwareType,DateUTC
2013-04-28 00:07:00,47.2,35.0,30.29,South,175,1.0,-999.0,64,-99.99,,,0.00,weatherlink.com 1.10,2013-04-28 04:07:00,
2013-04-28 00:22:00,47.0,36.0,30.29,South,169,1.0,-999.0,65,-99.99,,,0.00,weatherlink.com 1.10,2013-04-28 04:22:00,
2013-04-28 00:37:00,46.9,36.0,30.29,SSE,165,0.0,-999.0,65,-99.99,,,0.00,weatherlink.com 1.10,2013-04-28 04:37:00,
2013-04-28 00:52:00,46.3,35.0,30.29,SSE,165,0.0,-999.0,66,-99.99,,,0.00,weatherlink.com 1.10,2013-04-28 04:52:00,
2013-04-28 01:07:00,46.1,36.0,30.28,SSE,167,0.0,-999.0,67,-99.99,,,0.00,weatherlink.com 1.10,2013-04-28 05:07:00,
2013-04-28 01:22:00,46.0,36.0,30.28,SSW,197,3.0,-999.0,68,-99.99,,,0.00,weatherlink.com 1.10,2013-04-28 05:22:00,
2013-04-28 01:37:00,46.1,36.0,30.27,SSW,205,4.0,-999.0,69,-99.99,,,0.00,weatherlink.com 1.10,2013-04-28 05:37:00,
2013-04-28 01:52:00,45.8,37.0,30.27,SSW,199,1.0,-999.0,70,-99.99,,,0.00,weatherlink.com 1.10,2013-04-28 05:52:00,
2013-04-28 02:07:00,45.3,37.0,30.27,SSW,200,3.0,-999.0,72,-99.99,,,0.00,weatherlink.com 1.10,2013-04-28 06:07:00,
2013-04-28 02:22:00,45.4,36.0,30.26,SSW,208,1.0,-999.0,71,-99.99,,,0.00,weatherlink.com 1.10,2013-04-28 06:22:00,
2013-04-28 02:37:00,45.3,37.0,30.26,SSW,205,1.0,-999.0,72,-99.99,,,0.00,weatherlink.com 1.10,2013-04-28 06:37:00,
2013-04-28 02:52:00,44.7,37.0,30.26,SSW,204,2.0,-999.0,73,-99.99,,,0.00,weatherlink.com 1.10,2013-04-28 06:52:00,
2013-04-28 03:07:00,44.6,37.0,30.26,SSW,195,0.0,-999.0,75,-99.99,,,0.00,weatherlink.com 1.10,2013-04-28 07:07:00,
2013-04-28 03:22:00,44.5,37.0,30.26,North,-999,-999.0,-999.0,75,-99.99,,,0.00,weatherlink.com 1.10,2013-04-28 07:22:00,
2013-04-28 03:37:00,44.0,37.0,30.26,North,-999,-999.0,-999.0,76,-99.99,,,0.00,weatherlink.com 1.10,2013-04-28 07:37:00,
2013-04-28 03:52:00,43.2,37.0,30.26,North,-999,-999.0,-999.0,78,-99.99,,,0.00,weatherlink.com 1.10,2013-04-28 07:52:00,
2013-04-28 04:07:00,42.5,36.0,30.26,North,-999,-999.0,-999.0,79,-99.99,,,0.00,weatherlink.com 1.10,2013-04-28 08:07:00,
2013-04-28 04:22:00,42.3,37.0,30.26,North,-999,-999.0,-999.0,80,-99.99,,,0.00,weatherlink.com 1.10,2013-04-28 08:22:00,
2013-04-28 04:37:00,42.2,36.0,30.26,North,-999,-999.0,-999.0,80,-99.99,,,0.00,weatherlink.com 1.10,2013-04-28 08:37:00,
2013-04-28 04:52:00,41.7,36.0,30.25,North,-999,-999.0,-999.0,81,-99.99,,,0.00,weatherlink.com 1.10,2013-04-28 08:52:00,
2013-04-28 05:07:00,41.6,37.0,30.26,North,-999,-999.0,-999.0,82,-99.99,,,0.00,weatherlink.com 1.10,2013-04-28 09:07:00,
2013-04-28 05:22:00,41.5,36.0,30.26,North,-999,-999.0,-999.0,82,-99.99,,,0.00,weatherlink.com 1.10,2013-04-28 09:22:00,
2013-04-28 05:37:00,40.8,36.0,30.26,North,-999,-999.0,-999.0,83,-99.99,,,0.00,weatherlink.com 1.10,2013-04-28 09:37:00,
2013-04-28 05:52:00,41.0,37.0,30.26,North,-999,-999.0,-999.0,84,-99.99,,,0.00,weatherlink.com 1.10,2013-04-28 09:52:00,
2013-04-28 06:07:00,41.4,37.0,30.26,North,-999,-999.0,-999.0,83,-99.99,,,0.00,weatherlink.com 1.10,2013-04-28 10:07:00,
2013-04-28 06:22:00,41.7,37.0,30.26,North,-999,-999.0,-999.0,83,-99.99,,,0.00,weatherlink.com 1.10,2013-04-28 10:22:00,
2013-04-28 06:37:00,42.4,38.0,30.27,North,-999,-999.0,-999.0,83,-99.99,,,0.00,weatherlink.com 1.10,2013-04-28 10:37:00,
2013-04-28 06:52:00,44.3,38.0,30.27,SSW,204,0.0,-999.0,79,-99.99,,,0.00,weatherlink.com 1.10,2013-04-28 10:52:00,
2013-04-28 07:07:00,44.7,38.0,30.27,WSW,242,2.0,-999.0,78,-99.99,,,0.00,weatherlink.com 1.10,2013-04-28 11:07:00,
2013-04-28 07:22:00,45.0,39.0,30.28,West,259,2.0,-999.0,78,-99.99,,,0.00,weatherlink.com 1.10,2013-04-28 11:22:00,
2013-04-28 07:37:00,46.0,39.0,30.27,SW,215,1.0,-999.0,77,-99.99,,,0.00,weatherlink.com 1.10,2013-04-28 11:37:00,
2013-04-28 07:52:00,47.3,40.0,30.28,SW,215,1.0,-999.0,75,-99.99,,,0.00,weatherlink.com 1.10,2013-04-28 11:52:00,
2013-04-28 08:07:00,48.3,40.0,30.28,SW,215,1.0,-999.0,74,-99.99,,,0.00,weatherlink.com 1.10,2013-04-28 12:07:00,
2013-04-28 08:22:00,49.0,40.0,30.29,SW,226,1.0,-999.0,72,-99.99,,,0.00,weatherlink.com 1.10,2013-04-28 12:22:00,
2013-04-28 08:37:00,51.0,40.0,30.29,SW,236,3.0,-999.0,67,-99.99,,,0.00,weatherlink.com 1.10,2013-04-28 12:37:00,
2013-04-28 08:52:00,52.2,41.0,30.29,SW,221,0.0,-999.0,65,-99.99,,,0.00,weatherlink.com 1.10,2013-04-28 12:52:00,
2013-04-28 09:07:00,53.0,41.0,30.29,WSW,252,1.0,-999.0,64,-99.99,,,0.00,weatherlink.com 1.10,2013-04-28 13:07:00,
2013-04-28 09:22:00,53.7,41.0,30.29,SSW,200,2.0,-999.0,63,-99.99,,,0.00,weatherlink.com 1.10,2013-04-28 13:22:00,
2013-04-28 09:37:00,55.6,42.0,30.29,SSE,148,1.0,-999.0,60,-99.99,,,0.00,weatherlink.com 1.10,2013-04-28 13:37:00,
2013-04-28 09:52:00,57.5,40.0,30.29,SSW,197,2.0,-999.0,53,-99.99,,,0.00,weatherlink.com 1.10,2013-04-28 13:52:00,
2013-04-28 10:07:00,58.9,41.0,30.29,ESE,107,1.0,-999.0,52,-99.99,,,0.00,weatherlink.com 1.10,2013-04-28 14:07:00,
2013-04-28 10:22:00,59.1,40.0,30.29,SSE,148,2.0,-999.0,49,-99.99,,,0.00,weatherlink.com 1.10,2013-04-28 14:22:00,
2013-04-28 10:37:00,59.8,38.0,30.29,SW,214,14.0,-999.0,45,-99.99,,,0.00,weatherlink.com 1.10,2013-04-28 14:37:00,
2013-04-28 10:52:00,61.7,40.0,30.28,NW,325,1.0,-999.0,45,-99.99,,,0.00,weatherlink.com 1.10,2013-04-28 14:52:00,
2013-04-28 11:07:00,61.4,39.0,30.28,SE,141,4.0,-999.0,43,-99.99,,,0.00,weatherlink.com 1.10,2013-04-28 15:07:00,
2013-04-28 11:22:00,61.9,39.0,30.27,ESE,121,6.0,-999.0,43,-99.99,,,0.00,weatherlink.com 1.10,2013-04-28 15:22:00,
2013-04-28 11:37:00,62.2,38.0,30.27,SE,131,5.0,-999.0,41,-99.99,,,0.00,weatherlink.com 1.10,2013-04-28 15:37:00,
2013-04-28 11:52:00,63.0,39.0,30.26,ESE,107,6.0,-999.0,42,-99.99,,,0.00,weatherlink.com 1.10,2013-04-28 15:52:00,
2013-04-28 12:07:00,62.8,38.0,30.26,ENE,71,2.0,-999.0,40,-99.99,,,0.00,weatherlink.com 1.10,2013-04-28 16:07:00,
2013-04-28 12:22:00,63.5,38.0,30.25,West,266,5.0,-999.0,39,-99.99,,,0.00,weatherlink.com 1.10,2013-04-28 16:22:00,
2013-04-28 12:37:00,64.7,39.0,30.24,SSW,197,3.0,-999.0,39,-99.99,,,0.00,weatherlink.com 1.10,2013-04-28 16:37:00,
2013-04-28 12:52:00,65.0,39.0,30.24,SE,127,3.0,-999.0,38,-99.99,,,0.00,weatherlink.com 1.10,2013-04-28 16:52:00,
2013-04-28 13:07:00,65.3,39.0,30.23,NE,53,3.0,-999.0,38,-99.99,,,0.00,weatherlink.com 1.10,2013-04-28 17:07:00,
2013-04-28 13:22:00,65.9,39.0,30.23,South,170,3.0,-999.0,37,-99.99,,,0.00,weatherlink.com 1.10,2013-04-28 17:22:00,
2013-04-28 13:37:00,66.3,38.0,30.23,South,173,5.0,-999.0,35,-99.99,,,0.00,weatherlink.com 1.10,2013-04-28 17:37:00,
2013-04-28 13:52:00,66.2,38.0,30.22,SSE,163,2.0,-999.0,35,-99.99,,,0.00,weatherlink.com 1.10,2013-04-28 17:52:00,
2013-04-28 14:07:00,66.2,40.0,30.21,East,95,4.0,-999.0,38,-99.99,,,0.00,weatherlink.com 1.10,2013-04-28 18:07:00,
2013-04-28 14:23:00,65.4,40.0,30.21,ESE,111,2.0,-999.0,39,-99.99,,,0.00,weatherlink.com 1.10,2013-04-28 18:23:00,
2013-04-28 14:37:00,64.8,38.0,30.21,South,180,7.0,-999.0,37,-99.99,,,0.00,weatherlink.com 1.10,2013-04-28 18:37:00,
2013-04-28 14:52:00,64.8,38.0,30.20,East,101,6.0,-999.0,38,-99.99,,,0.00,weatherlink.com 1.10,2013-04-28 18:52:00,
2013-04-28 15:07:00,64.8,39.0,30.20,SSE,155,4.0,-999.0,39,-99.99,,,0.00,weatherlink.com 1.10,2013-04-28 19:07:00,
2013-04-28 15:22:00,64.3,38.0,30.20,SE,146,3.0,-999.0,38,-99.99,,,0.00,weatherlink.com 1.10,2013-04-28 19:22:00,
2013-04-28 15:37:00,64.9,38.0,30.19,South,173,5.0,-999.0,37,-99.99,,,0.00,weatherlink.com 1.10,2013-04-28 19:37:00,
2013-04-28 15:52:00,64.2,39.0,30.19,ESE,105,13.0,-999.0,39,-99.99,,,0.00,weatherlink.com 1.10,2013-04-28 19:52:00,
2013-04-28 16:07:00,63.4,38.0,30.19,SSE,162,11.0,-999.0,39,-99.99,,,0.00,weatherlink.com 1.10,2013-04-28 20:07:00,
2013-04-28 16:22:00,63.0,37.0,30.18,SSE,154,2.0,-999.0,39,-99.99,,,0.00,weatherlink.com 1.10,2013-04-28 20:22:00,
2013-04-28 16:37:00,62.4,38.0,30.18,SE,135,4.0,-999.0,41,-99.99,,,0.00,weatherlink.com 1.10,2013-04-28 20:37:00,
2013-04-28 16:52:00,62.1,39.0,30.18,SE,145,5.0,-999.0,42,-99.99,,,0.00,weatherlink.com 1.10,2013-04-28 20:52:00,
2013-04-28 17:07:00,61.7,39.0,30.19,ESE,111,1.0,-999.0,44,-99.99,,,0.00,weatherlink.com 1.10,2013-04-28 21:07:00,
2013-04-28 17:22:00,61.7,39.0,30.19,SE,146,3.0,-999.0,44,-99.99,,,0.00,weatherlink.com 1.10,2013-04-28 21:22:00,
2013-04-28 17:37:00,60.7,38.0,30.19,SE,145,6.0,-999.0,44,-99.99,,,0.00,weatherlink.com 1.10,2013-04-28 21:37:00,
2013-04-28 17:52:00,60.5,39.0,30.19,SE,126,6.0,-999.0,46,-99.99,,,0.00,weatherlink.com 1.10,2013-04-28 21:52:00,
2013-04-28 18:07:00,59.8,39.0,30.19,SE,133,5.0,-999.0,46,-99.99,,,0.00,weatherlink.com 1.10,2013-04-28 22:07:00,
2013-04-28 18:22:00,59.0,38.0,30.19,SE,139,2.0,-999.0,46,-99.99,,,0.00,weatherlink.com 1.10,2013-04-28 22:22:00,
2013-04-28 18:37:00,58.5,38.0,30.19,ESE,105,4.0,-999.0,47,-99.99,,,0.00,weatherlink.com 1.10,2013-04-28 22:37:00,
2013-04-28 18:52:00,57.7,37.0,30.19,ESE,115,10.0,-999.0,47,-99.99,,,0.00,weatherlink.com 1.10,2013-04-28 22:52:00,
2013-04-28 19:07:00,56.9,37.0,30.19,ENE,69,5.0,-999.0,48,-99.99,,,0.00,weatherlink.com 1.10,2013-04-28 23:07:00,
2013-04-28 19:22:00,56.4,37.0,30.19,ESE,103,2.0,-999.0,49,-99.99,,,0.00,weatherlink.com 1.10,2013-04-28 23:22:00,
2013-04-28 19:37:00,55.8,37.0,30.18,ENE,69,2.0,-999.0,50,-99.99,,,0.00,weatherlink.com 1.10,2013-04-28 23:37:00,
2013-04-28 19:52:00,55.1,38.0,30.18,SE,130,5.0,-999.0,52,-99.99,,,0.00,weatherlink.com 1.10,2013-04-28 23:52:00,
2013-04-28 20:07:00,54.5,38.0,30.18,East,82,1.0,-999.0,55,-99.99,,,0.00,weatherlink.com 1.10,2013-04-29 00:07:00,
2013-04-28 20:22:00,54.0,38.0,30.18,SE,126,2.0,-999.0,56,-99.99,,,0.00,weatherlink.com 1.10,2013-04-29 00:22:00,
2013-04-28 20:37:00,53.3,39.0,30.18,ESE,111,2.0,-999.0,59,-99.99,,,0.00,weatherlink.com 1.10,2013-04-29 00:37:00,
2013-04-28 20:52:00,53.0,39.0,30.19,ESE,103,0.0,-999.0,60,-99.99,,,0.00,weatherlink.com 1.10,2013-04-29 00:52:00,
2013-04-28 21:07:00,52.7,39.0,30.19,SE,140,2.0,-999.0,61,-99.99,,,0.00,weatherlink.com 1.10,2013-04-29 01:07:00,
2013-04-28 21:22:00,52.3,39.0,30.20,SE,144,0.0,-999.0,62,-99.99,,,0.00,weatherlink.com 1.10,2013-04-29 01:22:00,
2013-04-28 21:37:00,52.2,39.0,30.20,SSE,159,2.0,-999.0,61,-99.99,,,0.00,weatherlink.com 1.10,2013-04-29 01:37:00,
2013-04-28 21:52:00,52.7,37.0,30.20,South,170,1.0,-999.0,56,-99.99,,,0.00,weatherlink.com 1.10,2013-04-29 01:52:00,
2013-04-28 22:07:00,52.8,36.0,30.20,SSE,155,1.0,-999.0,53,-99.99,,,0.00,weatherlink.com 1.10,2013-04-29 02:07:00,
2013-04-28 22:22:00,53.1,34.0,30.20,SE,144,2.0,-999.0,49,-99.99,,,0.00,weatherlink.com 1.10,2013-04-29 02:22:00,
2013-04-28 22:37:00,52.7,34.0,30.21,South,178,1.0,-999.0,49,-99.99,,,0.00,weatherlink.com 1.10,2013-04-29 02:37:00,
2013-04-28 22:52:00,52.5,33.0,30.21,SSW,196,2.0,-999.0,48,-99.99,,,0.00,weatherlink.com 1.10,2013-04-29 02:52:00,
2013-04-28 23:07:00,52.1,33.0,30.21,South,190,2.0,-999.0,48,-99.99,,,0.00,weatherlink.com 1.10,2013-04-29 03:07:00,
2013-04-28 23:22:00,51.7,32.0,30.21,SSW,202,3.0,-999.0,48,-99.99,,,0.00,weatherlink.com 1.10,2013-04-29 03:22:00,
2013-04-28 23:37:00,51.4,32.0,30.21,South,182,3.0,-999.0,48,-99.99,,,0.00,weatherlink.com 1.10,2013-04-29 03:37:00,
2013-04-28 23:52:00,51.0,32.0,30.21,SSW,202,0.0,-999.0,48,-99.99,,,0.00,weatherlink.com 1.10,2013-04-29 03:52:00,